Location: Gro� Glienicke
(52.4675°N, 13.1079°E)
Time: 08:28:04
(UTC+00:00)

ATLAS 2AS CENTAUR R/B - Pass Details

Date: 06 July 2020
Orbit: 930 x 1282 km, 63.7° (Epoch: 19 July)

Event Time Altitude Azimuth Distance (km) Brightness Sun altitude
Rises 23:38:18 0° 310° (NW) 4,142 6.3 -14.8°
Reaches altitude 10° 23:42:15 10° 292° (WNW) 3,111 5.3 -14.7°
Maximum altitude 23:46:34 17° 256° (WSW) 2,559 4.5 -14.6°
Enters shadow 23:49:56 12° 225° (SW) 2,811 4.4 -14.5°
